Regional Weather Roundup
Issued by NWS Jackson, KY

Home | Current Version | Previous Version | Graphics & Text | Print | Product List | Glossary On
Versions: 1 2 3 4 5 6 7 8 9 10 11 12 13 14 15 16 17 18 19 20 21 22 23 24 25 26 27 28 29 30 31 32 33 34 35 36 37 38 39 40 41 42 43 44 45 46 47 48 49 50
637
ASUS43 KJKL 261810
RWRJKL

EAST KENTUCKY HOURLY WEATHER ROUNDUP
NATIONAL WEATHER SERVICE JACKSON KY
200 PM EDT SUN MAR 26 2017

NOTE: "FAIR" INDICATES FEW OR NO CLOUDS BELOW 12,000 FEET WITH
NO SIGNIFICANT WEATHER AND/OR OBSTRUCTIONS TO VISIBILITY.

* THESE REPORTS ARE NOT UNDER NWS QUALITY CONTROL AND MAY NOT
  REPORT WEATHER SUCH AS PRECIPITATION AND FOG.

KYZ079-080-083-085-087-088-110-112-115-119-120-261900
...EASTERN KENTUCKY...

CITY           SKY/WX    TMP DP  RH WIND       PRES   REMARKS
JACKSON        CLOUDY    67  53  61 VRB7G21   30.00F
6HR MIN TEMP:  55; 6HR MAX TEMP:  68; 6HR PCP:  0.03;

LONDON         LGT RAIN  62  57  83 S8        30.02S
6HR MIN TEMP:  56; 6HR MAX TEMP:  66; 6HR PCP:  0.02;

SOMERSET*      LGT RAIN  59  59 100 SW8       30.03F
MONTICELLO*    LGT RAIN  60  58  92 SW15      30.04F
6HR MIN TEMP:  59; 6HR MAX TEMP:  61; 6HR PCP:  0.38;

WILLIAMSBURG*  CLOUDY    61  61 100 S7        30.03F
MIDDLESBORO*   CLOUDY    65  58  79 SW5       30.04F
6HR MIN TEMP:  56; 6HR MAX TEMP:  65; 6HR PCP:  0.11;

HARLAN APT*    CLOUDY    63  55  77 CALM      30.04F
PIKE CO APT*   PTSUNNY   67  53  60 S10G16    30.02F
BIG SANDY APT* RAIN      67  55  63 S10G16    30.02F
6HR MIN TEMP:  57; 6HR MAX TEMP:  70;

MOREHEAD APT*  LGT RAIN  59  57  94 S9        30.02F
ASHLAND*       CLOUDY    55  55 100 NW6       30.00F
$$

KYZ035-036-041-042-044-050-067-078-099-261900
...CENTRAL KENTUCKY...

CITY           SKY/WX    TMP DP  RH WIND       PRES   REMARKS
MT STERLING*   CLOUDY    64  59  82 SW13      30.00F
FLEMING/MASON* HVY RAIN  58  56  94 NW15      30.00F
DANVILLE*      CLOUDY    64  54  68 SW14      29.99F
LEXINGTON      CLOUDY    66  55  67 SW16      29.98F
6HR MIN TEMP:  57; 6HR MAX TEMP:  66; 6HR PCP:  0.14;

FRANKFORT      CLOUDY    67  56  67 S12       29.95F
6HR MIN TEMP:  57; 6HR MAX TEMP:  67; 6HR PCP:  0.05;

LOUISVILLE     PTSUNNY   68  53  58 S14G21    29.93F
6HR MIN TEMP:  58; 6HR MAX TEMP:  69; 6HR PCP:  0.06;

LEBANON*         N/A     66  55  68 SW15G22   29.98F
GLASGOW*       CLOUDY    66  55  66 SW9       29.98F
BOWLING GREEN  CLOUDY    68  57  68 S12       29.97F
6HR MIN TEMP:  59; 6HR MAX TEMP:  68;

$$

KYZ091>093-OHZ055-061-077-WVZ005-015-034-035-042-261900
...SOUTHERN OHIO/WEST VIRGINIA...

CITY           SKY/WX    TMP DP  RH WIND       PRES   REMARKS
COVINGTON      CLOUDY    62  58  86 S9        29.95F
COLUMBUS       PTSUNNY   63  56  78 S14       29.98F
DAYTON         CLOUDY    59  56  89 S12       29.95F
WILMINGTON     CLOUDY    57  55  93 S7        29.98F
HUNTINGTON     RAIN      63  55  75 VRB3      30.01F
CHARLESTON     PTSUNNY   69  51  52 S15G24    30.03F
PINEVILLE*     MOSUNNY   69  51  52 MISG      30.12F
BECKLEY        CLOUDY    61  52  72 S13G24    30.12F
BLUEFIELD      CLOUDY    57  50  77 S12G25    30.14
LOGAN CO APT*    N/A     68  52  56 S12G20    30.05F
$$

VAZ002-007-008-TNZ017-027-036-066-071-261900
...SOUTHWEST VIRGINIA/EAST TENNESSEE...

CITY           SKY/WX    TMP DP  RH WIND       PRES   REMARKS
WISE*          CLOUDY    63  50  63 S10G17    30.09F
JONESVILLE*      N/A    N/A N/A N/A MISG        N/A
ABINGDON*      CLOUDY    69  52  55 S8        30.09F
BRISTOL        PTSUNNY   72  50  45 SW12G17   30.06F
MORRISTOWN*    CLOUDY    70  54  56 W8        30.03F
SEVIERVILLE*   PTCLDY    73  48  40 SW13      30.02F
KNOXVILLE      CLOUDY    70  57  63 SW14      30.03F
LAFOLLETTE*    CLOUDY    63  59  88 S6G13     30.07S FOG
OAK RIDGE      LGT RAIN  63  59  87 VRB5      30.06F
CROSSVILLE     CLOUDY    61  57  87 S8        30.05F
NASHVILLE      PTSUNNY   69  55  60 S12G20    30.00S
$$

...KEY TO REMARKS...
VSB - VISIBILITY IN MILES
WCI - WIND CHILL INDEX
HX  - HEAT INDEX

$$




USA.gov is the U.S. government's official web portal to all federal, state and local government web resources and services.